| time (UTC) | temp C | wind direction | speed KPH | gust KPH | rain 1hr cm | rain 24hr cm | rain mn cm | humidity % | barometer mb |
| 20260510234707 | 18 | 248 | 0.0 | 3.2 | 0.00 | 0.00 | 0.00 | 79 | 1012.7 |
| 20260510233707 | 18 | 180 | 0.0 | 3.2 | 0.00 | 0.00 | 0.00 | 77 | 1012.2 |
| 20260510233207 | 18 | 338 | 0.0 | 6.4 | 0.00 | 0.00 | 0.00 | 76 | 1012.1 |
| 20260510232707 | 18 | 293 | 0.0 | 6.4 | 0.00 | 0.00 | 0.00 | 76 | 1012.3 |
| 20260510231708 | 18 | 270 | 0.0 | 9.7 | 0.00 | 0.00 | 0.00 | 75 | 1012.5 |
| 20260510231207 | 19 | 248 | 3.2 | 9.7 | 0.00 | 0.00 | 0.00 | 74 | 1012.2 |
| 20260510230707 | 19 | 293 | 3.2 | 9.7 | 0.00 | 0.00 | 0.00 | 73 | 1012.5 |
| 20260510230207 | 19 | 293 | 4.8 | 9.7 | 0.00 | 0.00 | 0.00 | 72 | 1012.3 |
| 20260510225707 | 18 | 203 | 3.2 | 9.7 | 0.00 | 0.00 | 0.00 | 73 | 1012.2 |
| 20260510224707 | 18 | 248 | 3.2 | 9.7 | 0.00 | 0.00 | 0.00 | 74 | 1012.1 |
| 20260510224208 | 18 | 225 | 4.8 | 6.4 | 0.00 | 0.00 | 0.00 | 73 | 1012.3 |
| 20260510223707 | 18 | 225 | 3.2 | 6.4 | 0.00 | 0.00 | 0.00 | 75 | 1012.3 |
| 20260510223207 | 18 | 248 | 3.2 | 11.3 | 0.00 | 0.00 | 0.00 | 75 | 1012.3 |
| 20260510222707 | 18 | 180 | 1.6 | 17.7 | 0.00 | 0.00 | 0.00 | 75 | 1012.1 |
| 20260510222207 | 18 | 180 | 3.2 | 17.7 | 0.00 | 0.00 | 0.00 | 76 | 1012.1 |
| 20260510221707 | 19 | 248 | 6.4 | 17.7 | 0.00 | 0.00 | 0.00 | 76 | 1011.9 |
| 20260510221207 | 19 | 225 | 8.0 | 20.9 | 0.00 | 0.00 | 0.00 | 76 | 1011.9 |
| 20260510220707 | 19 | 225 | 8.0 | 20.9 | 0.00 | 0.00 | 0.00 | 76 | 1011.9 |
| 20260510220208 | 20 | 203 | 6.4 | 20.9 | 0.00 | 0.00 | 0.00 | 69 | 1011.6 |
| 20260510215708 | 20 | 248 | 11.3 | 17.7 | 0.00 | 0.00 | 0.00 | 69 | 1012.0 |
| 20260510215208 | 20 | 248 | 8.0 | 17.7 | 0.00 | 0.00 | 0.00 | 69 | 1011.7 |
| 20260510214708 | 20 | 248 | 11.3 | 17.7 | 0.00 | 0.00 | 0.00 | 68 | 1011.7 |
| 20260510214207 | 20 | 225 | 11.3 | 25.7 | 0.00 | 0.00 | 0.00 | 68 | 1011.7 |
| 20260510213707 | 20 | 270 | 12.9 | 27.4 | 0.00 | 0.00 | 0.00 | 68 | 1011.7 |
| 20260510213207 | 20 | 225 | 6.4 | 32.2 | 0.00 | 0.00 | 0.00 | 66 | 1011.9 |
| 20260510212708 | 21 | 270 | 8.0 | 33.8 | 0.00 | 0.00 | 0.00 | 64 | 1011.3 |
| 20260510212208 | 21 | 248 | 12.9 | 33.8 | 0.00 | 0.00 | 0.00 | 63 | 1011.7 |
| 20260510211708 | 21 | 158 | 19.3 | 33.8 | 0.00 | 0.00 | 0.00 | 62 | 1011.5 |
| 20260510211208 | 21 | 248 | 20.9 | 29.0 | 0.00 | 0.00 | 0.00 | 63 | 1011.4 |
| 20260510210708 | 21 | 248 | 20.9 | 29.0 | 0.00 | 0.00 | 0.00 | 63 | 1011.3 |
| 20260510210207 | 20 | 225 | 17.7 | 33.8 | 0.00 | 0.00 | 0.00 | 67 | 1011.4 |
| 20260510205707 | 20 | 203 | 14.5 | 33.8 | 0.00 | 0.00 | 0.00 | 73 | 1011.6 |
| 20260510205208 | 20 | 225 | 20.9 | 37.0 | 0.00 | 0.00 | 0.00 | 70 | 1011.5 |
| 20260510203708 | 20 | 248 | 19.3 | 37.0 | 0.00 | 0.00 | 0.00 | 68 | 1011.3 |
| 20260510203208 | 20 | 225 | 17.7 | 37.0 | 0.00 | 0.00 | 0.00 | 68 | 1011.4 |
| 20260510202708 | 20 | 248 | 24.1 | 37.0 | 0.00 | 0.00 | 0.00 | 67 | 1011.3 |
| 20260510202207 | 20 | 225 | 20.9 | 38.6 | 0.00 | 0.00 | 0.00 | 72 | 1011.3 |
| 20260510201707 | 20 | 248 | 17.7 | 38.6 | 0.00 | 0.00 | 0.00 | 69 | 1011.0 |
| 20260510201207 | 20 | 248 | 19.3 | 38.6 | 0.00 | 0.00 | 0.00 | 67 | 1011.1 |
| 20260510200707 | 20 | 225 | 20.9 | 33.8 | 0.00 | 0.00 | 0.00 | 68 | 1010.9 |
| 20260510195708 | 20 | 225 | 19.3 | 33.8 | 0.00 | 0.00 | 0.00 | 73 | 1010.9 |
| 20260510195208 | 20 | 203 | 17.7 | 33.8 | 0.00 | 0.00 | 0.00 | 72 | 1010.8 |
| 20260510194707 | 20 | 203 | 20.9 | 37.0 | 0.00 | 0.00 | 0.00 | 71 | 1010.9 |
| 20260510194208 | 20 | 225 | 19.3 | 43.5 | 0.00 | 0.00 | 0.00 | 69 | 1010.6 |
| 20260510193707 | 20 | 225 | 24.1 | 43.5 | 0.00 | 0.00 | 0.00 | 68 | 1010.7 |
| 20260510193208 | 20 | 225 | 16.1 | 43.5 | 0.00 | 0.00 | 0.00 | 68 | 1010.7 |
| 20260510192708 | 20 | 248 | 24.1 | 46.7 | 0.00 | 0.00 | 0.00 | 68 | 1010.7 |
| 20260510192208 | 20 | 203 | 24.1 | 46.7 | 0.00 | 0.00 | 0.00 | 66 | 1010.7 |
| 20260510191708 | 20 | 203 | 27.4 | 46.7 | 0.00 | 0.00 | 0.00 | 66 | 1010.6 |
| 20260510191208 | 20 | 180 | 27.4 | 38.6 | 0.00 | 0.00 | 0.00 | 67 | 1010.4 |
| 20260510190708 | 20 | 225 | 20.9 | 38.6 | 0.00 | 0.00 | 0.00 | 69 | 1010.7 |
| 20260510190208 | 20 | 248 | 20.9 | 40.2 | 0.00 | 0.00 | 0.00 | 68 | 1010.4 |
| 20260510185708 | 20 | 248 | 24.1 | 40.2 | 0.00 | 0.00 | 0.00 | 68 | 1010.4 |
| 20260510184708 | 20 | 203 | 24.1 | 38.6 | 0.00 | 0.00 | 0.00 | 68 | 1010.5 |
| 20260510184208 | 20 | 203 | 17.7 | 38.6 | 0.00 | 0.00 | 0.00 | 70 | 1010.4 |
| 20260510183708 | 20 | 248 | 24.1 | 32.2 | 0.00 | 0.00 | 0.00 | 70 | 1010.5 |
| 20260510183208 | 20 | 203 | 19.3 | 27.4 | 0.00 | 0.00 | 0.00 | 72 | 1010.4 |
| 20260510182707 | 20 | 203 | 17.7 | 29.0 | 0.00 | 0.00 | 0.00 | 72 | 1010.3 |
| 20260510182207 | 20 | 225 | 20.9 | 29.0 | 0.00 | 0.00 | 0.00 | 72 | 1010.4 |
| 20260510181708 | 20 | 248 | 17.7 | 29.0 | 0.00 | 0.00 | 0.00 | 72 | 1010.5 |
| 20260510181208 | 20 | 225 | 19.3 | 32.2 | 0.00 | 0.00 | 0.00 | 71 | 1010.5 |
| 20260510180708 | 20 | 248 | 20.9 | 37.0 | 0.00 | 0.00 | 0.00 | 71 | 1010.5 |
| 20260510175207 | 20 | 225 | 14.5 | 37.0 | 0.00 | 0.00 | 0.00 | 68 | 1010.2 |
| 20260510174707 | 20 | 248 | 17.7 | 37.0 | 0.00 | 0.00 | 0.00 | 67 | 1010.2 |
| 20260510174207 | 21 | 225 | 24.1 | 32.2 | 0.00 | 0.00 | 0.00 | 65 | 1010.8 |
| 20260510173707 | 21 | 203 | 11.3 | 35.4 | 0.00 | 0.00 | 0.00 | 64 | 1010.9 |
| 20260510173207 | 21 | 225 | 20.9 | 35.4 | 0.00 | 0.00 | 0.00 | 64 | 1010.8 |
| 20260510172207 | 21 | 203 | 14.5 | 35.4 | 0.00 | 0.00 | 0.00 | 61 | 1010.9 |
| 20260510171707 | 21 | 203 | 12.9 | 35.4 | 0.00 | 0.00 | 0.00 | 62 | 1010.7 |
| 20260510171207 | 21 | 225 | 16.1 | 35.4 | 0.00 | 0.00 | 0.00 | 60 | 1010.8 |
| 20260510170707 | 22 | 225 | 11.3 | 33.8 | 0.00 | 0.00 | 0.00 | 59 | 1010.8 |
| 20260510165708 | 21 | 180 | 16.1 | 27.4 | 0.00 | 0.00 | 0.00 | 61 | 1010.7 |
| 20260510165208 | 21 | 270 | 16.1 | 35.4 | 0.00 | 0.00 | 0.00 | 62 | 1010.7 |
| 20260510163708 | 21 | 158 | 12.9 | 29.0 | 0.00 | 0.00 | 0.00 | 63 | 1010.9 |
| 20260510163208 | 21 | 225 | 12.9 | 29.0 | 0.00 | 0.00 | 0.00 | 63 | 1010.6 |
| 20260510162708 | 21 | 203 | 12.9 | 32.2 | 0.00 | 0.00 | 0.00 | 63 | 1010.8 |
| 20260510162208 | 21 | 180 | 12.9 | 32.2 | 0.00 | 0.00 | 0.00 | 64 | 1010.8 |
| 20260510161707 | 21 | 203 | 9.7 | 29.0 | 0.00 | 0.00 | 0.00 | 64 | 1011.0 |
| 20260510161207 | 22 | 203 | 9.7 | 35.4 | 0.00 | 0.00 | 0.00 | 64 | 1011.0 |
| 20260510160707 | 21 | 248 | 16.1 | 35.4 | 0.00 | 0.00 | 0.00 | 63 | 1011.4 |
| 20260510160208 | 21 | 293 | 16.1 | 27.4 | 0.00 | 0.00 | 0.00 | 61 | 1011.0 |
| 20260510155208 | 22 | 248 | 14.5 | 33.8 | 0.00 | 0.00 | 0.00 | 61 | 1011.1 |
| 20260510154208 | 22 | 225 | 17.7 | 33.8 | 0.00 | 0.00 | 0.00 | 64 | 1011.1 |
| 20260510153708 | 21 | 248 | 20.9 | 29.0 | 0.00 | 0.00 | 0.00 | 65 | 1011.1 |
| 20260510153208 | 21 | 203 | 19.3 | 32.2 | 0.00 | 0.00 | 0.00 | 63 | 1011.0 |
| 20260510152208 | 22 | 225 | 17.7 | 32.2 | 0.00 | 0.00 | 0.00 | 62 | 1010.9 |
| 20260510151707 | 22 | 248 | 20.9 | 27.4 | 0.00 | 0.00 | 0.00 | 62 | 1011.2 |
| 20260510151208 | 22 | 225 | 14.5 | 27.4 | 0.00 | 0.00 | 0.00 | 63 | 1011.3 |
| 20260510150708 | 22 | 203 | 12.9 | 27.4 | 0.00 | 0.00 | 0.00 | 64 | 1011.2 |
| 20260510150208 | 22 | 225 | 12.9 | 29.0 | 0.00 | 0.00 | 0.00 | 65 | 1011.4 |
| 20260510145708 | 21 | 203 | 12.9 | 29.0 | 0.00 | 0.00 | 0.00 | 66 | 1011.6 |
| 20260510145208 | 21 | 225 | 14.5 | 29.0 | 0.00 | 0.00 | 0.00 | 66 | 1011.5 |
| 20260510144708 | 21 | 203 | 16.1 | 25.7 | 0.00 | 0.00 | 0.00 | 65 | 1011.6 |
| 20260510143708 | 22 | 248 | 12.9 | 25.7 | 0.00 | 0.00 | 0.00 | 65 | 1011.7 |
| 20260510143208 | 22 | 203 | 12.9 | 29.0 | 0.00 | 0.00 | 0.00 | 65 | 1011.6 |
| 20260510142719 | 21 | 203 | 17.7 | 29.0 | 0.00 | 0.00 | 0.00 | 65 | 1011.8 |
| 20260510142208 | 21 | 203 | 16.1 | 29.0 | 0.00 | 0.00 | 0.00 | 65 | 1011.8 |
| 20260510141708 | 21 | 203 | 16.1 | 25.7 | 0.00 | 0.00 | 0.00 | 65 | 1011.7 |
| 20260510141209 | 21 | 203 | 12.9 | 25.7 | 0.00 | 0.00 | 0.00 | 65 | 1011.9 |
| 20260510140710 | 22 | 180 | 14.5 | 22.5 | 0.00 | 0.00 | 0.00 | 65 | 1012.1 |
| 20260510140207 | 22 | 225 | 14.5 | 22.5 | 0.00 | 0.00 | 0.00 | 66 | 1012.2 |
| 20260510135711 | 21 | 180 | 11.3 | 25.7 | 0.00 | 0.00 | 0.00 | 67 | 1012.1 |
| 20260510135207 | 21 | 203 | 11.3 | 25.7 | 0.00 | 0.00 | 0.00 | 68 | 1012.1 |
| 20260510134714 | 21 | 203 | 12.9 | 22.5 | 0.00 | 0.00 | 0.00 | 68 | 1012.1 |
| 20260510134208 | 21 | 225 | 11.3 | 22.5 | 0.00 | 0.00 | 0.00 | 70 | 1012.4 |
| 20260510133711 | 21 | 180 | 17.7 | 22.5 | 0.00 | 0.00 | 0.00 | 69 | 1012.4 |
| 20260510133208 | 21 | 225 | 12.9 | 24.1 | 0.00 | 0.00 | 0.00 | 69 | 1012.5 |
| 20260510132707 | 21 | 225 | 17.7 | 27.4 | 0.00 | 0.00 | 0.00 | 68 | 1012.3 |
| 20260510132207 | 21 | 180 | 12.9 | 27.4 | 0.00 | 0.00 | 0.00 | 71 | 1012.4 |
| 20260510131708 | 21 | 225 | 9.7 | 29.0 | 0.00 | 0.00 | 0.00 | 70 | 1012.6 |
| 20260510131208 | 21 | 225 | 14.5 | 29.0 | 0.00 | 0.00 | 0.00 | 70 | 1012.6 |
| 20260510130708 | 21 | 225 | 12.9 | 25.7 | 0.00 | 0.00 | 0.00 | 71 | 1012.5 |
| 20260510130208 | 21 | 203 | 17.7 | 25.7 | 0.00 | 0.00 | 0.00 | 70 | 1012.7 |
| 20260510125708 | 21 | 225 | 14.5 | 24.1 | 0.00 | 0.00 | 0.00 | 72 | 1012.8 |
| 20260510125208 | 21 | 225 | 12.9 | 27.4 | 0.00 | 0.00 | 0.00 | 72 | 1012.8 |
| 20260510124712 | 21 | 225 | 14.5 | 27.4 | 0.00 | 0.00 | 0.00 | 72 | 1012.8 |
| 20260510124208 | 21 | 203 | 12.9 | 27.4 | 0.00 | 0.00 | 0.00 | 70 | 1013.0 |
| 20260510123729 | 21 | 248 | 14.5 | 25.7 | 0.00 | 0.00 | 0.00 | 71 | 1013.0 |
| 20260510123208 | 21 | 203 | 12.9 | 25.7 | 0.00 | 0.00 | 0.00 | 71 | 1013.1 |
| 20260510122708 | 21 | 203 | 16.1 | 25.7 | 0.00 | 0.00 | 0.00 | 71 | 1013.2 |
| 20260510121207 | 21 | 248 | 9.7 | 33.8 | 0.00 | 0.00 | 0.00 | 74 | 1013.4 |
| 20260510120707 | 21 | 158 | 9.7 | 33.8 | 0.00 | 0.00 | 0.00 | 73 | 1013.0 |
| 20260510120208 | 20 | 203 | 19.3 | 29.0 | 0.00 | 0.00 | 0.00 | 73 | 1013.0 |
| 20260510115708 | 21 | 248 | 19.3 | 29.0 | 0.00 | 0.00 | 0.00 | 73 | 1013.4 |
| 20260510114708 | 21 | 248 | 14.5 | 29.0 | 0.00 | 0.03 | 0.00 | 74 | 1013.3 |
| 20260510114208 | 20 | 225 | 20.9 | 29.0 | 0.00 | 0.03 | 0.00 | 75 | 1013.4 |
| 20260510113708 | 20 | 203 | 17.7 | 27.4 | 0.00 | 0.03 | 0.00 | 75 | 1013.4 |
| 20260510113208 | 21 | 180 | 16.1 | 27.4 | 0.00 | 0.03 | 0.00 | 74 | 1013.3 |
| 20260510112208 | 21 | 180 | 12.9 | 25.7 | 0.00 | 0.10 | 0.00 | 73 | 1013.6 |
| 20260510111707 | 21 | 225 | 12.9 | 25.7 | 0.00 | 0.10 | 0.00 | 73 | 1013.6 |
| 20260510111208 | 21 | 248 | 16.1 | 25.7 | 0.00 | 0.13 | 0.00 | 72 | 1013.4 |
| 20260510110208 | 21 | 180 | 12.9 | 32.2 | 0.00 | 0.13 | 0.00 | 72 | 1013.5 |
| 20260510105708 | 21 | 203 | 16.1 | 32.2 | 0.00 | 0.15 | 0.00 | 73 | 1013.8 |
| 20260510105208 | 21 | 248 | 17.7 | 32.2 | 0.00 | 0.15 | 0.00 | 73 | 1014.1 |
| 20260510104708 | 21 | 225 | 11.3 | 32.2 | 0.00 | 0.15 | 0.00 | 73 | 1014.0 |
| 20260510104207 | 20 | 225 | 17.7 | 29.0 | 0.00 | 0.15 | 0.00 | 72 | 1014.1 |
| 20260510103707 | 20 | 225 | 17.7 | 29.0 | 0.00 | 0.15 | 0.00 | 72 | 1013.9 |
| 20260510103207 | 21 | 225 | 17.7 | 29.0 | 0.00 | 0.15 | 0.00 | 72 | 1014.0 |
| 20260510102208 | 21 | 203 | 14.5 | 25.7 | 0.00 | 0.15 | 0.00 | 73 | 1014.0 |
| 20260510101707 | 21 | 180 | 8.0 | 25.7 | 0.00 | 0.18 | 0.00 | 73 | 1013.9 |
| 20260510101208 | 21 | 203 | 12.9 | 25.7 | 0.00 | 0.18 | 0.00 | 73 | 1013.8 |
| 20260510100708 | 21 | 180 | 19.3 | 22.5 | 0.00 | 0.18 | 0.00 | 71 | 1013.8 |
| 20260510095707 | 21 | 203 | 9.7 | 12.9 | 0.00 | 0.20 | 0.00 | 68 | 1013.8 |
| 20260510094708 | 20 | 113 | 6.4 | 14.5 | 0.00 | 0.28 | 0.00 | 77 | 1014.0 |
| 20260510094207 | 21 | 90 | 6.4 | 14.5 | 0.00 | 0.28 | 0.00 | 78 | 1013.8 |
| 20260510093707 | 21 | 68 | 9.7 | 12.9 | 0.00 | 0.28 | 0.00 | 78 | 1013.7 |
| 20260510092708 | 20 | 45 | 6.4 | 9.7 | 0.00 | 0.28 | 0.00 | 79 | 1013.9 |
| 20260510092208 | 20 | 45 | 4.8 | 11.3 | 0.00 | 0.28 | 0.00 | 79 | 1013.9 |
| 20260510091708 | 20 | 90 | 3.2 | 12.9 | 0.00 | 0.28 | 0.00 | 80 | 1014.0 |
| 20260510091208 | 20 | 68 | 4.8 | 12.9 | 0.00 | 0.30 | 0.00 | 79 | 1013.8 |
| 20260510090208 | 20 | 90 | 6.4 | 9.7 | 0.00 | 0.56 | 0.00 | 79 | 1013.8 |
| 20260510085208 | 20 | 45 | 4.8 | 6.4 | 0.00 | 0.64 | 0.00 | 78 | 1014.0 |
| 20260510084708 | 20 | 68 | 3.2 | 9.7 | 0.00 | 0.79 | 0.00 | 79 | 1014.1 |
| 20260510084207 | 19 | 0 | 4.8 | 9.7 | 0.00 | 0.79 | 0.00 | 80 | 1013.7 |
| 20260510083708 | 19 | 0 | 3.2 | 9.7 | 0.00 | 0.79 | 0.00 | 82 | 1013.9 |
| 20260510083208 | 18 | 338 | 3.2 | 11.3 | 0.00 | 0.79 | 0.00 | 82 | 1013.8 |
| 20260510082708 | 18 | 23 | 4.8 | 12.9 | 0.00 | 0.79 | 0.00 | 83 | 1014.0 |
| 20260510082208 | 18 | 0 | 6.4 | 12.9 | 0.00 | 0.79 | 0.00 | 83 | 1013.8 |
| 20260510081708 | 18 | 0 | 6.4 | 12.9 | 0.00 | 0.79 | 0.00 | 84 | 1013.7 |
| 20260510081208 | 18 | 23 | 6.4 | 12.9 | 0.00 | 0.79 | 0.00 | 84 | 1013.9 |
| 20260510080708 | 18 | 338 | 6.4 | 12.9 | 0.00 | 0.79 | 0.00 | 84 | 1013.9 |
| 20260510080208 | 18 | 23 | 8.0 | 12.9 | 0.00 | 0.79 | 0.00 | 84 | 1013.9 |
| 20260510075708 | 18 | 338 | 6.4 | 12.9 | 0.00 | 0.79 | 0.00 | 83 | 1013.8 |
| 20260510075208 | 18 | 0 | 4.8 | 12.9 | 0.00 | 0.79 | 0.00 | 83 | 1013.9 |
| 20260510074708 | 18 | 23 | 8.0 | 9.7 | 0.00 | 0.79 | 0.00 | 83 | 1013.9 |
| 20260510073707 | 18 | 23 | 3.2 | 9.7 | 0.00 | 0.79 | 0.00 | 83 | 1013.9 |
| 20260510073209 | 18 | 0 | 4.8 | 9.7 | 0.00 | 0.79 | 0.00 | 83 | 1014.0 |
| 20260510072708 | 18 | 338 | 6.4 | 9.7 | 0.00 | 0.79 | 0.00 | 82 | 1014.0 |
| 20260510072208 | 18 | 338 | 6.4 | 6.4 | 0.00 | 0.79 | 0.00 | 82 | 1014.0 |
| 20260510071708 | 18 | 23 | 3.2 | 6.4 | 0.00 | 0.79 | 0.00 | 82 | 1014.0 |
| 20260510071208 | 19 | 0 | 3.2 | 6.4 | 0.00 | 0.79 | 0.00 | 82 | 1013.8 |
| 20260510070708 | 18 | 23 | 3.2 | 6.4 | 0.00 | 0.79 | 0.00 | 83 | 1014.0 |
| 20260510070208 | 18 | 293 | 1.6 | 6.4 | 0.00 | 0.81 | 0.00 | 84 | 1013.9 |
| 20260510065708 | 18 | 23 | 1.6 | 6.4 | 0.00 | 0.84 | 0.00 | 85 | 1013.8 |
| 20260510064708 | 17 | 23 | 1.6 | 3.2 | 0.00 | 0.94 | 0.00 | 85 | 1013.5 |
| 20260510064208 | 17 | 45 | 1.6 | 3.2 | 0.00 | 0.94 | 0.00 | 87 | 1013.5 |
| 20260510063708 | 17 | 45 | 0.0 | 3.2 | 0.00 | 0.94 | 0.00 | 87 | 1013.7 |
| 20260510063208 | 17 | 23 | 0.0 | 3.2 | 0.00 | 0.94 | 0.00 | 88 | 1013.7 |
| 20260510062209 | 16 | 338 | 1.6 | 3.2 | 0.00 | 0.94 | 0.00 | 89 | 1013.5 |
| 20260510061708 | 16 | 293 | 1.6 | 3.2 | 0.00 | 0.94 | 0.00 | 89 | 1013.6 |
| 20260510060708 | 16 | 315 | 3.2 | 0.0 | 0.00 | 0.94 | 0.00 | 89 | 1013.5 |
| 20260510060208 | 16 | 225 | 0.0 | 0.0 | 0.00 | 0.94 | 0.00 | 90 | 1013.6 |
| 20260510055708 | 16 | 225 | 0.0 | 0.0 | 0.00 | 0.94 | 0.00 | 90 | 1013.4 |
| 20260510055207 | 15 | 248 | 0.0 | 0.0 | 0.00 | 0.94 | 0.00 | 90 | 1013.5 |
| 20260510054707 | 15 | 225 | 0.0 | 0.0 | 0.00 | 0.94 | 0.00 | 90 | 1013.2 |
| 20260510054208 | 15 | 225 | 0.0 | 3.2 | 0.00 | 0.94 | 0.00 | 90 | 1013.3 |
| 20260510053708 | 15 | 203 | 0.0 | 3.2 | 0.00 | 0.94 | 0.00 | 90 | 1013.5 |
| 20260510053208 | 14 | 203 | 0.0 | 3.2 | 0.00 | 0.94 | 0.00 | 90 | 1013.5 |
| 20260510052708 | 14 | 180 | 0.0 | 3.2 | 0.00 | 0.94 | 0.00 | 90 | 1013.3 |
| 20260510052208 | 14 | 203 | 0.0 | 3.2 | 0.00 | 0.94 | 0.00 | 90 | 1013.1 |
| 20260510051708 | 14 | 248 | 1.6 | 3.2 | 0.00 | 0.94 | 0.00 | 90 | 1013.6 |
| 20260510051208 | 14 | 225 | 1.6 | 3.2 | 0.00 | 0.94 | 0.00 | 90 | 1013.4 |
| 20260510050708 | 14 | 248 | 1.6 | 3.2 | 0.00 | 0.94 | 0.00 | 90 | 1013.2 |
| 20260510050207 | 14 | 270 | 1.6 | 3.2 | 0.00 | 0.94 | 0.00 | 89 | 1013.4 |
| 20260510045707 | 14 | 248 | 0.0 | 9.7 | 0.00 | 0.94 | 0.00 | 89 | 1013.2 |
| 20260510045208 | 15 | 315 | 3.2 | 9.7 | 0.00 | 0.94 | 0.00 | 89 | 1013.2 |
| 20260510044207 | 15 | 270 | 4.8 | 9.7 | 0.00 | 0.94 | 0.00 | 88 | 1013.3 |
| 20260510043707 | 15 | 338 | 6.4 | 9.7 | 0.00 | 0.94 | 0.00 | 88 | 1013.1 |
| 20260510043208 | 16 | 315 | 3.2 | 6.4 | 0.00 | 0.94 | 0.00 | 88 | 1013.1 |
| 20260510042208 | 16 | 293 | 3.2 | 6.4 | 0.00 | 0.94 | 0.00 | 87 | 1013.1 |
| 20260510041708 | 16 | 293 | 3.2 | 6.4 | 0.00 | 0.94 | 0.00 | 87 | 1013.0 |
| 20260510041207 | 17 | 270 | 3.2 | 11.3 | 0.00 | 0.94 | 0.00 | 86 | 1013.2 |
| 20260510040708 | 17 | 248 | 3.2 | 12.9 | 0.00 | 0.94 | 0.00 | 86 | 1012.9 |
| 20260510040208 | 17 | 225 | 3.2 | 12.9 | 0.00 | 0.94 | 0.00 | 85 | 1013.1 |
| 20260510035708 | 17 | 180 | 6.4 | 12.9 | 0.00 | 0.94 | 0.00 | 85 | 1013.1 |
| 20260510035208 | 17 | 180 | 9.7 | 11.3 | 0.00 | 0.94 | 0.00 | 85 | 1013.1 |
| 20260510034708 | 17 | 203 | 4.8 | 6.4 | 0.00 | 0.94 | 0.00 | 85 | 1013.0 |
| 20260510034208 | 17 | 225 | 3.2 | 6.4 | 0.00 | 0.94 | 0.00 | 86 | 1012.9 |
| 20260510033708 | 17 | 225 | 3.2 | 6.4 | 0.00 | 0.94 | 0.00 | 86 | 1013.1 |
| 20260510033208 | 17 | 270 | 3.2 | 3.2 | 0.00 | 0.94 | 0.00 | 85 | 1013.1 |
| 20260510032708 | 17 | 225 | 0.0 | 3.2 | 0.00 | 0.94 | 0.00 | 85 | 1013.1 |
| 20260510032208 | 17 | 338 | 0.0 | 3.2 | 0.00 | 0.94 | 0.00 | 85 | 1012.9 |
| 20260510031708 | 17 | 0 | 0.0 | 6.4 | 0.00 | 0.94 | 0.00 | 84 | 1013.1 |
| 20260510031208 | 17 | 45 | 1.6 | 12.9 | 0.00 | 0.94 | 0.00 | 84 | 1013.1 |
| 20260510030708 | 17 | 270 | 0.0 | 12.9 | 0.00 | 0.94 | 0.00 | 84 | 1012.9 |
| 20260510030208 | 17 | 203 | 3.2 | 12.9 | 0.00 | 0.94 | 0.00 | 84 | 1012.8 |
| 20260510025208 | 17 | 248 | 6.4 | 9.7 | 0.00 | 0.94 | 0.00 | 84 | 1012.9 |
| 20260510024708 | 17 | 203 | 4.8 | 6.4 | 0.00 | 0.94 | 0.00 | 84 | 1012.9 |
| 20260510024208 | 17 | 180 | 6.4 | 9.7 | 0.00 | 0.94 | 0.00 | 85 | 1012.8 |
| 20260510023208 | 17 | 225 | 3.2 | 12.9 | 0.00 | 0.94 | 0.00 | 84 | 1013.0 |
| 20260510022208 | 17 | 270 | 4.8 | 17.7 | 0.00 | 0.94 | 0.00 | 84 | 1013.0 |
| 20260510021708 | 17 | 248 | 4.8 | 17.7 | 0.00 | 0.94 | 0.00 | 84 | 1012.8 |
| 20260510021208 | 17 | 203 | 8.0 | 12.9 | 0.00 | 0.94 | 0.00 | 84 | 1012.7 |
| 20260510020708 | 17 | 225 | 6.4 | 17.7 | 0.00 | 0.94 | 0.00 | 85 | 1012.8 |
| 20260510020207 | 17 | 225 | 6.4 | 17.7 | 0.00 | 0.94 | 0.00 | 85 | 1012.8 |
| 20260510015708 | 17 | 203 | 9.7 | 17.7 | 0.00 | 0.94 | 0.00 | 85 | 1012.8 |
| 20260510014708 | 17 | 225 | 6.4 | 24.1 | 0.00 | 0.94 | 0.00 | 85 | 1012.6 |
| 20260510014208 | 17 | 248 | 8.0 | 24.1 | 0.00 | 0.94 | 0.00 | 85 | 1012.8 |
| 20260510013708 | 17 | 248 | 12.9 | 24.1 | 0.00 | 0.94 | 0.00 | 85 | 1012.8 |
| 20260510013208 | 17 | 248 | 12.9 | 14.5 | 0.00 | 0.94 | 0.00 | 85 | 1012.7 |
| 20260510012708 | 17 | 293 | 8.0 | 14.5 | 0.00 | 0.94 | 0.00 | 85 | 1012.7 |
| 20260510012208 | 17 | 248 | 12.9 | 11.3 | 0.00 | 0.94 | 0.00 | 86 | 1012.6 |
| 20260510011708 | 17 | 293 | 4.8 | 12.9 | 0.00 | 0.94 | 0.00 | 86 | 1012.8 |
| 20260510011208 | 17 | 203 | 3.2 | 14.5 | 0.00 | 0.94 | 0.00 | 86 | 1012.9 |
| 20260510010708 | 17 | 248 | 3.2 | 17.7 | 0.00 | 0.94 | 0.00 | 86 | 1012.8 |
| 20260510010208 | 17 | 248 | 6.4 | 17.7 | 0.00 | 0.94 | 0.00 | 86 | 1012.7 |
| 20260510005708 | 17 | 248 | 6.4 | 17.7 | 0.00 | 0.94 | 0.00 | 86 | 1012.8 |
| 20260510005208 | 17 | 248 | 8.0 | 14.5 | 0.00 | 0.94 | 0.00 | 86 | 1012.7 |
| 20260510004708 | 17 | 225 | 8.0 | 14.5 | 0.00 | 0.94 | 0.00 | 86 | 1012.7 |
| 20260510004208 | 17 | 225 | 6.4 | 14.5 | 0.00 | 0.94 | 0.00 | 85 | 1012.8 |
| 20260510003208 | 17 | 225 | 6.4 | 14.5 | 0.00 | 0.94 | 0.00 | 85 | 1012.8 |
| 20260510002708 | 17 | 248 | 6.4 | 14.5 | 0.00 | 0.94 | 0.00 | 85 | 1012.9 |
| 20260510002208 | 17 | 248 | 6.4 | 14.5 | 0.00 | 0.94 | 0.00 | 85 | 1012.6 |
| 20260510001708 | 17 | 225 | 9.7 | 12.9 | 0.00 | 0.94 | 0.00 | 85 | 1013.0 |
| 20260510000708 | 17 | 248 | 6.4 | 12.9 | 0.00 | 0.94 | 0.00 | 84 | 1013.0 |
| 20260510000208 | 17 | 203 | 3.2 | 12.9 | 0.00 | 0.94 | 0.00 | 84 | 1012.9 |
| 20260509235708 | 17 | 248 | 6.4 | 12.9 | 0.00 | 0.94 | 0.00 | 83 | 1012.8 |
| 20260509235208 | 17 | 225 | 9.7 | 12.9 | 0.00 | 0.94 | 0.00 | 83 | 1013.1 |